sat.trackr.live / text

‹ back to catalog

STARLINK-33700

NORAD 63484 · 2025-070AA

PAYLOAD ACTIVE UNKNOWN

§ Identity

Operator
Country
US
Launch date
2025-04-06
Launch site
AFETR
Launch vehicle
Mass (kg)
RCS (m²)

Purposes: comms

External: N2YO · Heavens-Above · Gunter

§ Orbital elements

Epoch: 2026-05-25T03:59:46.592736Z

Period
94.27 min
Inclination
42.9989°
Eccentricity
0.0000862
Mean motion
15.27577577 rev/d
Perigee alt
482.5 km
Apogee alt
483.6 km
Semi-major
6,861.2 km
B*
4.8344e-4
RAAN
187.7889°
Arg perigee
285.5887°
Mean anomaly
74.4870°
Rev number
6,467

§ Raw data

STARLINK-337001 63484U 25070AA  26145.16651149  .00013064  00000+0  48344-3 0  99992 63484  42.9989 187.7889 0000862 285.5887  74.4870 15.27577577 64671

JSON: /api/v1/satellites/63484 · /tle

For live sub-satellite position, see the globe view (requires WebGL).

§ Visibility from observer

Set your observer location to see the next 7 days of passes ≥ 10°. The values pass through the URL so the page stays shareable.

No JS? Fill the form by hand. The geolocation button needs JavaScript.